Overview Statistics Trail Chart Weather Telemetry Raw packets
 

This is the latest recevied weather packets stored in our database for station/object KD7CIH. If no packets are shown the sender has not sent any weather packets the latest 10 day(s).

<< 83 84 85 86 87 88 89 >>
Time Temp. Humidity Pressure Rain* Wind** Luminosity Snow
1788093487 13.33° C 73% 1014.3 hPa 0 mm - - -
1788093187 13.33° C 72% 1014.6 hPa 0 mm - - -
1788092886 13.89° C 71% 1014.3 hPa 0 mm - - -
1788092578 13.89° C 70% 1014.3 hPa 0 mm - - -
1788092272 13.89° C 69% 1014.5 hPa 0 mm - - -
1788091970 14.44° C 68% 1014.6 hPa 0 mm - - -
1788091661 14.44° C 68% 1014.8 hPa 0 mm - - -
1788091354 13.33° C 69% 1014.9 hPa 0 mm - - -
1788091182 13.33° C 75% 1015.1 hPa 0 mm - - -
1788090755 13.33° C 75% 1015.1 hPa 0 mm - - -
1788090582 13.33° C 74% 1015.1 hPa 0 mm - - -
1788090155 13.33° C 73% 1014.7 hPa 0 mm - - -
1788089856 13.89° C 69% 1014.6 hPa 0 mm - - -
1788089555 13.89° C 69% 1014.5 hPa 0 mm - - -
1788089254 13.89° C 72% 1014.6 hPa 0 mm - - -
1788088954 13.89° C 73% 1014.6 hPa 0 mm - - -
1788088657 13.89° C 70% 1014.3 hPa 0 mm - - -
1788088354 13.89° C 72% 1014.7 hPa 0 mm - - -
1788088054 13.89° C 73% 1014.8 hPa 0 mm - - -
1788087754 13.89° C 73% 1014.9 hPa 0 mm - - -
1788087455 13.89° C 73% 1014.9 hPa 0 mm - - -
1788087154 13.89° C 71% 1014.6 hPa 0 mm - - -
1788086853 13.89° C 71% 1014.5 hPa 0 mm - - -
1788086554 13.89° C 69% 1014.6 hPa 0 mm - - -
1788086255 14.44° C 69% 1014.7 hPa 0 mm - - -

* Rain latest hour (hover to see other rain measurements)
** Current wind speed in m/s (hover to see current wind gust speed)